Jamestown, ND

12:46 PM CDT on April 26, 2017 (GMT -0500)
Jamestown Municipal

Weather History for KJMS - February, 2015

Change the Weather History Date:

Saturday, February 14, 2015

  Actual Average Record
Temperature  
Mean Temperature -1 °F 15 °F  
Max Temperature 10 °F 24 °F 48 °F (1921)
Min Temperature -12 °F 5 °F -37 °F (1936)
Degree Days  
Heating Degree Days 66 50  
Month to date heating degree days 767 731  
Since 1 July heating degree days 5892 6093  
Cooling Degree Days 0 0  
Month to date cooling degree days 0 0  
Year to date cooling degree days 0 0  
Moisture  
Dew Point -12 °F    
Average Humidity 68    
Maximum Humidity 78    
Minimum Humidity 58    
Precipitation  
Precipitation 0.01 in 0.01 in 0.50 in (1915)
Month to date precipitation 0.10 0.15  
Year to date precipitation 0.37 0.60  
Sea Level Pressure  
Sea Level Pressure 30.55 in    
Wind  
Wind Speed 12 mph (NE)    
Max Wind Speed 29 mph    
Max Gust Speed 35 mph    
Visibility 9 miles    
Events Snow    
T = Trace of Precipitation, MM = Missing Value Source: NWS Daily Summary

Daily Weather History Graph

Daily Weather History Graph

Search for Another Location

Airport or City:

Trip Planner

Search our weather history database for the weather conditions in past years. The results will help you decide how hot, cold, wet, or windy it might be!

Date:

Astronomy

Feb. 14, 2015 Rise Set
Actual Time 7:40 AM CST 5:57 PM CST
Civil Twilight 7:09 AM CST 6:28 PM CST
Nautical Twilight 6:33 AM CST 7:04 PM CST
Astronomical Twilight 5:58 AM CST 7:39 PM CST
Moon 3:52 AM CST (2/14) 1:25 PM CST (2/14)
Length of Visible Light 11h 19m
Length of Day
10h 16m
Waning Crescent, 24% of the Moon is Illuminated
Feb 14
Waning Crescent
Feb 18
New
Feb 25
First Quarter
Mar 5
Full
Mar 13
Last Quarter

Hourly Weather History & Observations

Time (CST) Temp. Windchill Dew Point Humidity Pressure Visibility Wind Dir Wind Speed Gust Speed Precip Events Conditions
12:08 AM 9.0 °F -11.8 °F 1.9 °F 73% 30.29 in 3.0 mi NNE 24.2 mph 32.2 mph 0.00 in Snow Light Snow
12:19 AM 7.0 °F -14.9 °F -2.9 °F 64% 30.30 in 2.5 mi NNE 25.3 mph 34.5 mph 0.00 in Snow Blowing Snow
12:26 AM 6.1 °F -16.8 °F -2.9 °F 67% 30.31 in 4.0 mi North 27.6 mph 34.5 mph 0.00 in Snow Blowing Snow
12:56 AM 3.9 °F -17.6 °F -2.9 °F 73% 30.44 in 9.0 mi NNE 21.9 mph 28.8 mph 0.00 in   Overcast
1:43 AM 3.0 °F -19.3 °F -5.1 °F 69% 30.36 in 10.0 mi NNE 23.0 mph 29.9 mph N/A   Overcast
1:56 AM 1.9 °F -21.6 °F -6.0 °F 69% 30.48 in 10.0 mi NNE 25.3 mph - N/A   Overcast
2:13 AM 1.0 °F -21.9 °F -6.0 °F 72% 30.38 in 9.0 mi NNE 23.0 mph 29.9 mph N/A   Overcast
2:40 AM -2.0 °F -24.4 °F -8.0 °F 76% 30.40 in 6.0 mi North 19.6 mph - N/A   Haze
2:56 AM -2.9 °F -25.0 °F -9.0 °F 75% 30.52 in 10.0 mi North 18.4 mph - N/A   Overcast
3:21 AM -4.0 °F -25.8 °F -11.9 °F 69% 30.42 in 10.0 mi North 17.3 mph - N/A   Scattered Clouds
3:56 AM -5.1 °F -25.1 °F -11.9 °F 72% 30.56 in 10.0 mi North 13.8 mph - N/A   Clear
4:56 AM -7.1 °F -27.6 °F -14.1 °F 72% 30.59 in 10.0 mi North 13.8 mph - N/A   Clear
5:56 AM -9.0 °F -31.7 °F -16.1 °F 71% 30.61 in 10.0 mi North 16.1 mph - N/A   Clear
6:56 AM -9.9 °F -31.3 °F -17.0 °F 71% 30.64 in 10.0 mi North 13.8 mph - N/A   Clear
7:35 AM -11.9 °F -27.3 °F -17.0 °F 78% 30.53 in 10.0 mi NNW 6.9 mph - N/A   Scattered Clouds
7:56 AM -11.0 °F -28.8 °F -17.0 °F 75% 30.66 in 10.0 mi North 9.2 mph - N/A   Partly Cloudy
8:56 AM -9.9 °F -28.6 °F -18.0 °F 68% 30.70 in 10.0 mi North 10.4 mph - N/A   Clear
9:27 AM -9.0 °F -27.4 °F -18.0 °F 65% 30.57 in 10.0 mi North 10.4 mph - N/A   Partly Cloudy
9:56 AM -9.0 °F -27.4 °F -18.0 °F 65% 30.71 in 10.0 mi North 10.4 mph - N/A   Partly Cloudy
10:56 AM -8.0 °F -25.0 °F -17.0 °F 65% 30.69 in 10.0 mi NE 9.2 mph - N/A   Clear
11:56 AM -6.0 °F -21.5 °F -15.0 °F 65% 30.71 in 10.0 mi NE 8.1 mph - N/A   Clear
12:56 PM -5.1 °F -17.6 °F -14.1 °F 65% 30.70 in 10.0 mi East 5.8 mph - N/A   Clear
1:56 PM -4.0 °F -16.3 °F -14.1 °F 62% 30.67 in 10.0 mi Variable 5.8 mph - N/A   Clear
2:56 PM -2.0 °F -13.9 °F -13.0 °F 60% 30.66 in 10.0 mi East 5.8 mph - N/A   Clear
3:56 PM -2.0 °F -19.6 °F -13.0 °F 60% 30.61 in 10.0 mi ESE 11.5 mph - N/A   Clear
4:56 PM -2.0 °F -18.7 °F -11.9 °F 63% 30.61 in 10.0 mi ESE 10.4 mph - N/A   Mostly Cloudy
5:56 PM -2.9 °F -21.6 °F -13.0 °F 62% 30.60 in 10.0 mi ESE 12.7 mph - N/A   Overcast
6:56 PM -4.0 °F -21.2 °F -13.0 °F 65% 30.61 in 10.0 mi SE 10.4 mph - N/A   Overcast
7:56 PM -4.0 °F -21.2 °F -14.1 °F 62% 30.61 in 10.0 mi SE 10.4 mph - N/A   Overcast
8:56 PM -5.1 °F -21.5 °F -14.1 °F 65% 30.61 in 8.0 mi ESE 9.2 mph - 0.00 in Snow Light Snow
9:56 PM -4.0 °F -22.1 °F -13.0 °F 65% 30.59 in 10.0 mi SSE 11.5 mph - 0.00 in   Overcast
10:56 PM -5.1 °F -22.5 °F -11.9 °F 72% 30.57 in 8.0 mi SE 10.4 mph - 0.00 in Snow Light Snow
11:56 PM -5.1 °F -23.5 °F -11.0 °F 76% 30.56 in 2.5 mi SE 11.5 mph - 0.01 in Snow Light Snow